Starlink 36206

operational
NORAD ID: 66930 Int'l Des: 2025-286 Owner: SPXS Country: US Constellation: starlink
LEOCIRCULAR

关于 Starlink 36206

正在加载描述...

实时位置

正在加载3D地球...

即将过境

高度历史

Altitude vs Time

uPlot chart will show altitude changes over time

两行轨道根数

1 66930U 25286F 25347.58336806 -.01207343 44714-3 -29141-2 0 9991
2 66930 53.1573 46.4346 0000948 54.9319 232.0956 15.95757023 2125
Epoch: Dec 13, 2025 • Age: 19 hours

当前状态

高度 310.1 km
速度 7.72 km/s
星下点 -52.00°S, 69.9°E
发射日期 Dec 7, 2025
运行时间 6 days
类型 internet

技术详情

分类 Payload
质量 575.00 kg
干质量 530.00 kg
总质量 575.00 kg
长度 0.30 m
直径 4.10 m
跨度 29.00 m
形状 Box + pan
制造商 SPXS
平台类型 Starlink V2MO
阶段状态 In Orbit
所有者/国家 SPXS/US

大型星座

Loading constellations...